Location: Azat
(46.0765°N, 1.7600°E)
Time: 15:51:36
(UTC+00:00)

Cosmos 1814 Rocket - Pass Details

Date: 09 April 2020
Orbit: 744 x 787 km, 74.1° (Epoch: 27 May)

Event Time Altitude Azimuth Distance (km) Brightness Sun altitude
Rises 21:38:49 0° 336° (NNW) 3,289 8.4 -28.0°
Reaches altitude 10° 21:41:13 10° 335° (NNW) 2,358 7.4 -28.3°
Enters shadow 21:46:10 71° 291° (WNW) 837 4.2 -28.8°
